Вернуться в каталог

COSMOS 1275 DEB

LostPO
NORAD 42185·DEBRIS·🇷🇺 Russia

Запущен Jun 4, 1981 с Plesetsk Cosmodrome

Loading…

Ближайшие Пролёты (ближайшие 24 часа)

TLE

УстаревшееSource: Space-Track

Эпоха: May 4, 2026, 18:48 UTC

1 42185U 81053SZ  26124.78400628  .00001501  00000-0  12617-2 0  9993
2 42185  83.0468 320.5934 0115299 242.4921 116.4485 13.84418820227906

Отслеживайте COSMOS 1275 DEB в реальном времени с AllMySat

Download on the App Store